NOAA 16 DEB, 41197

Orbit data source: Space-Track

NOAA 16 DEB, 41197 is space debris in SSO originally from a launch on Thu, 21 Sep 2000 UTC launched from the Air Force Western Test Range (AFWTR). Debris objects in space refer to the collection of defunct objects orbiting the Earth. Examples of debris include non-operational satellites, rocket bodies, and fragments generated from explosions, collisions, or faulty payload assembly.

Loading next visibility...
Identifier
41197, 2000-055DA
Orbit
SSO
Country
Flag of USUS
Related business
Manufacturer
Unknown
Mission
Spacecraft
Bus & Motor
Unknown
Mass
Unknown
Launch date (UTC)
2000-09-21 (25 years ago)
Launch vehicle
Unknown
Launch site
Air Force Western Test Range (AFWTR)
Object type
Payload
Rocket body
Debris
Shape & HBR
Unknown shape, 0.1 m
Radar Cross Section
Small (<0.1 m²)

Expand to show TLE details & history
Last TLE update: 1 day ago

TLE from 1 day ago
0 NOAA 16 DEB
1 41197U 00055DA  25299.30745264  .00008454  00000-0  31603-2 0  9996
2 41197  98.6672 312.7246 0035441 101.7355 258.7807 14.31703103505871
Epoch: 2025-10-26T07:22Z
TLE epoch observation values (Epoch: 2025-10-26T07:22:43.908Z)
Latitude
-0.00008°
Longitude
167.11614°
Altitude
794.003 km
Speed
7.454 km/s
True Right ascension
20h 50m 53s
True Declination
0° 00' 00"
Sunlit
Object was in daylight at epoch
Visualization orbit readout
Latitude
Unknown
Longitude
Unknown
Altitude
Unknown
Speed
Unknown
Apparent Right ascension
Unknown
Apparent Declination
Unknown
Sunlit
N/A
Visualization observer readout
Local Sidereal Time
04:15:43
Azimuth
Unknown
Elevation
Unknown
Doppler factor
Unknown
Orbital elements
Apogee altitude
808.565 km
Perigee altitude
757.804 km
Semi-major axis
7,161.322 km
Eccentricity
0.00354
Inclination
98.6672°
RAAN
312.7246°
Arg. of periapsis
101.7355°
True anomaly
258.38268°
Mean anomaly
258.7807°
Eccentric anomaly
258.58166°
Mean motion
3.5814 °/min
Orbital period
100.52 mins
BSTAR
0.0031603
Loading maneuver chart data...
Computing Atmospheric mass density...
Loading historical data...
Loading historical data...
Loading historical data...
Loading historical data...
Loading historical data...
Loading historical data...
Loading historical data...

Documentation

Showing up to 5 results
|